| time (UTC) | temp C | wind direction | speed KPH | gust KPH | rain 1hr cm | rain 24hr cm | rain mn cm | humidity % | barometer mb |
| 20260507141724 | 6 | 348 | 29.0 | 41.8 | 0.00 | 0.00 | 0.00 | 58 | 866.1 |
| 20260507130153 | 6 | 339 | 22.5 | 35.4 | 0.00 | 0.00 | 0.00 | 55 | 865.7 |
| 20260507120126 | 6 | 350 | 19.3 | 35.4 | 0.00 | 0.00 | 0.00 | 52 | 866.0 |
| 20260507110122 | 6 | 327 | 20.9 | 29.0 | 0.00 | 0.00 | 0.00 | 59 | 866.1 |
| 20260507100153 | 6 | 338 | 22.5 | 37.0 | 0.00 | 0.00 | 0.00 | 62 | 866.3 |
| 20260507090128 | 6 | 338 | 20.9 | 33.8 | 0.00 | 0.00 | 0.00 | 54 | 866.5 |
| 20260507080126 | 7 | 329 | 20.9 | 32.2 | 0.00 | 0.00 | 0.00 | 45 | 866.8 |
| 20260507070136 | 7 | 340 | 17.7 | 32.2 | 0.00 | 0.00 | 0.00 | 46 | 867.2 |
| 20260507060148 | 8 | 300 | 20.9 | 25.7 | 0.00 | 0.00 | 0.00 | 43 | 867.6 |
| 20260507050156 | 9 | 311 | 19.3 | 32.2 | 0.00 | 0.00 | 0.00 | 46 | 867.6 |
| 20260507043345 | 10 | 355 | 16.1 | 29.0 | 0.00 | 0.00 | 0.00 | 48 | 867.7 |
| 20260507030204 | 11 | 274 | 19.3 | 32.2 | 0.00 | 0.00 | 0.00 | 48 | 867.4 |
| 20260507020055 | 11 | 280 | 19.3 | 32.2 | 0.00 | 0.00 | 0.00 | 50 | 867.5 |
| 20260507012055 | 14 | 269 | 17.7 | 32.2 | 0.00 | 0.00 | 0.00 | 58 | 867.3 |
| 20260507001758 | 14 | 266 | 20.9 | 29.0 | 0.00 | 0.00 | 0.00 | 48 | 867.4 |
| 20260506231038 | 15 | 296 | 17.7 | 24.1 | 0.00 | 0.00 | 0.00 | 44 | 867.7 |
| 20260506220709 | 15 | 279 | 30.6 | 38.6 | 0.00 | 0.00 | 0.00 | 44 | 868.1 |
| 20260506210309 | 14 | 293 | 14.5 | 35.4 | 0.00 | 0.00 | 0.00 | 48 | 868.5 |
| 20260506202736 | 13 | 233 | 22.5 | 38.6 | 0.00 | 0.00 | 0.00 | 48 | 868.6 |
| 20260506191750 | 12 | 269 | 17.7 | 22.5 | 0.00 | 0.00 | 0.00 | 52 | 868.9 |
| 20260506181258 | 11 | 217 | 9.7 | 14.5 | 0.00 | 0.00 | 0.00 | 55 | 868.7 |
| 20260506171019 | 11 | 239 | 9.7 | 14.5 | 0.00 | 0.00 | 0.00 | 55 | 868.5 |
| 20260506160402 | 10 | 233 | 4.8 | 8.0 | 0.00 | 0.00 | 0.00 | 56 | 868.3 |
| 20260506152855 | 10 | 232 | 1.6 | 6.4 | 0.00 | 0.00 | 0.00 | 53 | 868.2 |